Home   Weather   Oklahoma City   Past weeks
Flag for USA

Past Weather in Oklahoma City, Oklahoma, USA — Yesterday and Last 2 Weeks

Now
89 °F

Scattered clouds.


Feels Like: 97 °F
Forecast: 99 / 72 °F
Wind: 8 mph from Southwest

Location: Will Rogers World Airport

Current Time: Jul 16, 2019 at 11:51:12 am

Latest Report: Jul 16, 2019 at 10:52 am


Visibility: 10 mi

Pressure: 29.90 "Hg

Humidity: 59%

Dew Point: 73 °F

Location of Oklahoma CityLocation

Past Weather in Oklahoma City — Graph

°F

Oklahoma City Temperature Yesterday

Maximum temperature yesterday: 91 °F (at 4:52 pm)
Minimum temperature yesterday: 71 °F (at 1:52 am)
Average temperature yesterday: 81 °F

High & Low Weather Summary for the Past Weeks

 TemperatureHumidityPressure
High96 °F (Jul 10, 3:52 pm)100% (Jul 2, 3:52 am)30.09 "Hg (Jul 2, 3:52 am)
Low68 °F (Jul 12, 5:52 am)38% (Jul 12, 2:52 pm)29.79 "Hg (Jul 3, 9:52 pm)
Average81 °F73%29.93 "Hg
* Reported Jul 1 9:52 am — Jul 16 9:52 am, Oklahoma City. Weather by CustomWeather, © 2019

Note: Actual official high and low records may vary slightly from our data, if they occured in-between our weather recording intervals... More about our weather records

Advertising

Oklahoma City Weather History for the Previous 24 Hours

Scroll right to see more
 ConditionsComfort  
Time TempWeatherWind HumidityBarometerVisibility
9:52 am
Tue, Jul 16
84 °FPartly sunny.6 mph70%29.90 "Hg10 mi
8:52 am80 °FScattered clouds.5 mph76%29.90 "Hg10 mi
7:52 am75 °FScattered clouds.6 mph90%29.89 "Hg10 mi
6:52 am70 °FScattered clouds.5 mph100%29.87 "Hg10 mi
5:52 am70 °FPassing clouds.6 mph100%29.86 "Hg10 mi
4:52 am71 °FPassing clouds.3 mph96%29.85 "Hg10 mi
3:52 am71 °FClear.3 mph96%29.85 "Hg10 mi
2:52 am73 °FClear.5 mph90%29.85 "Hg10 mi
1:52 am73 °FClear.6 mph90%29.87 "Hg10 mi
12:52 am74 °FClear.6 mph88%29.88 "Hg10 mi
11:52 pm
Mon, Jul 15
77 °FClear.8 mph79%29.87 "Hg10 mi
10:52 pm79 °FClear.8 mph72%29.86 "Hg10 mi
9:52 pm80 °FClear.8 mph69%29.85 "Hg10 mi
8:52 pm83 °FClear.10 mph63%29.83 "Hg10 mi
7:52 pm88 °FPassing clouds.7 mph52%29.81 "Hg10 mi
6:52 pm90 °FPassing clouds.No wind47%29.81 "Hg10 mi
5:52 pm91 °FScattered clouds.6 mph45%29.82 "Hg10 mi
4:52 pm91 °FScattered clouds.8 mph47%29.83 "Hg10 mi
3:52 pm90 °FScattered clouds.6 mph48%29.85 "Hg10 mi
2:52 pm88 °FPartly sunny.8 mph52%29.87 "Hg10 mi
1:52 pm89 °FScattered clouds.8 mph52%29.88 "Hg10 mi
12:52 pm87 °FBroken clouds.9 mph57%29.89 "Hg10 mi
11:52 am83 °FPartly sunny.10 mph65%29.90 "Hg10 mi
Weather by CustomWeather, © 2019

See weather overview

LIVE PARTIAL LUNAR ECLIPSE – Watch the eclipse as it happens